Temp
-12 -15 -15 -15 -15 -16 -15 -15 -15 -15 -15 -15 -15 -14 -14 -14 -14 -13 -13 -13 -13 -13 -13 -12 -12 -12 -12 -11 -12 -12 -12 -12
-13 -14 -15 -15 -16 -15 -16 -15 -15 -16 -16 -15 -15 -14 -15 -15 -14 -14 -13 -13 -14 -13 -13 -13 -13 -12 -12 -12 -12 -12 -12 -12
-15 -16 -16 -16 -16 -16 -15 -16 -15 -15 -16 -16 -16 -15 -15 -15 -15 -14 -14 -14 -14 -13 -13 -13 -13 -13 -13 -13 -12 -12 -12 -13
-19 -19 -19 -18 -17 -17 -16 -16 -16 -15 -16 -15 -15 -15 -16 -15 -15 -15 -14 -14 -14 -14 -14 -14 -13 -13 -13 -13 -13 -13 -13 -13
-19 -19 -19 -19 -18 -18 -17 -16 -17 -16 -16 -16 -15 -16 -15 -15 -15 -16 -15 -15 -14 -14 -14 -14 -14 -14 -13 -13 -13 -13 -13 -13
-19 -19 -19 -19 -19 -18 -17 -17 -17 -17 -17 -16 -16 -15 -15 -16 -15 -16 -16 -15 -15 -15 -14 -14 -14 -14 -14 -14 -13 -13 -13 -13
-19 -19 -20 -20 -20 -19 -17 -17 -17 -17 -17 -17 -16 -15 -16 -16 -16 -16 -15 -16 -15 -15 -14 -14 -14 -14 -14 -14 -14 -13 -13 -13
-20 -20 -21 -21 -20 -19 -17 -18 -17 -17 -17 -16 -16 -16 -16 -16 -16 -16 -15 -15 -15 -16 -15 -14 -14 -15 -14 -14 -14 -13 -14 -13
-20 -21 -22 -21 -20 -18 -18 -17 -17 -17 -16 -16 -16 -16 -16 -16 -16 -15 -15 -15 -15 -16 -15 -15 -15 -14 -14 -14 -14 -14 -14 -14
-19 -20 -21 -22 -21 -19 -18 -17 -17 -17 -16 -16 -16 -16 -16 -16 -16 -15 -15 -15 -15 -15 -15 -14 -14 -14 -14 -14 -14 -14 -14 -14
-19 -20 -20 -20 -19 -18 -17 -17 -17 -17 -16 -16 -16 -16 -16 -16 -16 -16 -16 -15 -14 -15 -15 -14 -15 -15 -14 -14 -14 -14 -14 -14
-19 -19 -19 -19 -18 -18 -17 -17 -17 -17 -17 -17 -16 -16 -15 -15 -16 -16 -16 -15 -15 -15 -14 -14 -14 -14 -14 -14 -14 -14 -14 -14
-19 -18 -18 -18 -18 -17 -17 -17 -17 -17 -17 -17 -17 -17 -16 -15 -15 -15 -14 -14 -14 -14 -14 -14 -14 -14 -14 -14 -14 -14 -14 -14
-19 -18 -18 -18 -18 -17 -17 -17 -17 -17 -17 -17 -16 -15 -15 -15 -15 -14 -14 -14 -14 -14 -14 -14 -14 -14 -14 -14 -14 -14 -14 -14
-19 -18 -17 -17 -17 -18 -17 -16 -16 -16 -16 -15 -15 -15 -15 -14 -14 -14 -14 -14 -14 -14 -13 -14 -14 -14 -14 -14 -14 -14 -14 -14
-19 -18 -17 -17 -17 -17 -17 -17 -16 -16 -16 -15 -14 -14 -14 -14 -14 -14 -14 -14 -14 -14 -14 -14 -13 -13 -13 -14 -14 -14 -14 -13
-20 -19 -18 -17 -17 -17 -17 -16 -16 -16 -15 -15 -15 -15 -15 -15 -14 -14 -14 -14 -14 -14 -13 -13 -13 -14 -14 -13 -14 -14 -14 -14
-20 -20 -19 -18 -17 -17 -17 -17 -16 -16 -16 -16 -16 -16 -16 -15 -15 -15 -15 -15 -14 -15 -15 -14 -14 -14 -14 -14 -14 -14 -14 -14
-20 -20 -20 -19 -19 -17 -17 -17 -17 -17 -16 -16 -16 -16 -16 -16 -16 -16 -16 -16 -15 -15 -15 -15 -15 -15 -15 -14 -14 -15 -15 -15
Height
5698 5695 5695 5701 5702 5702 5706 5712 5719 5725 5730 5736 5743 5750 5754 5760 5764 5767 5770 5772 5775 5778 5779 5782 5783 5784 5785 5786 5786 5787 5788 5787
5670 5667 5668 5670 5678 5683 5687 5692 5702 5711 5715 5722 5732 5740 5746 5751 5756 5760 5763 5766 5768 5771 5773 5775 5778 5779 5780 5781 5782 5783 5784 5784
5637 5631 5628 5631 5644 5655 5665 5671 5681 5692 5703 5710 5719 5727 5736 5740 5746 5751 5755 5757 5761 5764 5767 5769 5771 5773 5775 5776 5777 5778 5779 5781
5604 5599 5592 5590 5605 5624 5639 5651 5660 5673 5687 5696 5703 5710 5719 5726 5735 5742 5746 5749 5754 5757 5759 5762 5765 5767 5769 5770 5772 5773 5774 5776
5585 5573 5564 5555 5565 5591 5610 5627 5641 5655 5668 5678 5687 5697 5710 5720 5731 5735 5739 5742 5745 5747 5751 5754 5757 5760 5762 5763 5766 5767 5769 5770
5565 5552 5540 5533 5534 5556 5586 5606 5623 5639 5652 5665 5678 5690 5702 5709 5716 5723 5728 5733 5735 5739 5741 5746 5749 5754 5756 5757 5759 5761 5762 5764
5545 5538 5525 5518 5518 5537 5566 5591 5609 5625 5640 5652 5666 5680 5689 5697 5705 5712 5719 5724 5726 5730 5733 5737 5742 5746 5749 5750 5752 5754 5756 5758
5545 5531 5521 5515 5516 5535 5560 5581 5601 5617 5632 5644 5657 5669 5677 5686 5695 5702 5709 5715 5717 5721 5725 5729 5734 5737 5741 5743 5745 5747 5749 5751
5544 5532 5524 5516 5517 5535 5557 5579 5597 5613 5628 5639 5649 5657 5666 5676 5684 5690 5696 5703 5709 5713 5715 5719 5723 5728 5732 5735 5737 5740 5742 5744
5545 5536 5532 5528 5533 5546 5566 5583 5597 5609 5621 5630 5638 5647 5654 5665 5673 5680 5689 5693 5698 5701 5703 5709 5714 5717 5723 5726 5729 5731 5733 5735
5548 5543 5540 5540 5545 5558 5571 5583 5594 5605 5613 5620 5628 5635 5643 5653 5662 5670 5676 5684 5687 5689 5690 5699 5704 5708 5713 5717 5720 5723 5724 5726
5552 5550 5550 5551 5557 5563 5571 5580 5588 5596 5604 5610 5618 5624 5632 5641 5649 5654 5660 5668 5673 5677 5682 5689 5692 5698 5703 5707 5711 5714 5715 5717
5553 5553 5553 5556 5559 5565 5570 5576 5582 5588 5595 5601 5607 5614 5623 5628 5634 5641 5646 5655 5660 5665 5662 5672 5680 5686 5692 5696 5701 5704 5706 5709
5550 5549 5548 5553 5557 5560 5565 5572 5577 5582 5588 5594 5601 5608 5615 5620 5625 5633 5639 5646 5652 5654 5655 5665 5670 5675 5680 5685 5689 5694 5696 5699
5551 5548 5543 5549 5552 5556 5562 5568 5570 5576 5581 5589 5594 5598 5605 5610 5616 5624 5631 5636 5642 5647 5653 5657 5659 5663 5669 5675 5680 5683 5686 5689
5553 5551 5549 5550 5550 5555 5559 5562 5567 5571 5575 5575 5574 5586 5595 5599 5610 5616 5624 5631 5634 5637 5643 5648 5651 5655 5661 5664 5669 5671 5675 5679
5555 5552 5551 5548 5551 5554 5556 5559 5562 5564 5567 5572 5578 5586 5589 5594 5600 5607 5617 5622 5625 5629 5635 5636 5640 5646 5651 5655 5656 5658 5664 5668
5557 5555 5552 5550 5550 5551 5551 5556 5559 5562 5566 5569 5576 5581 5586 5590 5596 5600 5606 5612 5616 5619 5623 5628 5633 5638 5644 5645 5644 5649 5656 5658
5558 5556 5553 5552 5552 5550 5550 5554 5557 5561 5565 5568 5574 5578 5582 5584 5590 5595 5600 5605 5609 5613 5617 5622 5626 5631 5633 5637 5640 5643 5646 5647
Wind_Speed
76 71 69 62 70 74 76 75 72 69 68 64 60 46 41 36 39 41 38 31 29 26 26 24 20 20 18 16 14 12 13 12
89 89 85 78 68 76 78 81 78 70 71 67 64 60 52 39 37 40 38 36 31 28 28 27 22 22 21 19 17 15 14 14
89 87 90 87 78 74 78 81 84 78 72 67 63 61 51 44 40 40 40 39 35 31 29 29 26 25 24 22 21 18 17 16
48 49 55 66 75 77 80 77 80 83 75 70 65 64 53 50 43 43 42 39 36 33 30 30 29 27 26 26 24 22 20 19
53 47 51 60 64 79 82 79 74 79 76 74 69 54 55 52 46 37 41 39 38 37 35 31 31 29 28 29 27 25 22 21
49 44 46 39 55 70 82 78 71 71 76 73 69 65 61 54 52 44 45 40 40 36 40 34 33 31 30 31 30 27 26 24
38 42 38 29 42 63 80 76 69 67 66 71 70 61 61 59 52 51 49 42 41 39 43 40 34 34 33 33 33 30 29 26
39 36 25 17 25 52 73 72 65 63 55 59 63 65 60 58 55 54 51 47 45 41 44 44 39 37 37 34 33 33 32 28
32 26 16 3 19 52 67 67 61 56 54 47 52 56 66 59 56 57 56 52 48 44 48 47 44 40 40 37 35 36 34 31
25 21 6 16 18 44 54 57 55 54 46 49 49 52 56 62 58 53 56 55 53 52 53 51 47 44 43 40 38 38 35 32
16 16 6 13 26 41 44 47 49 46 42 45 47 50 53 58 64 58 56 59 60 58 59 52 48 48 46 43 42 41 37 34
8 12 2 14 28 35 39 41 39 39 40 45 49 50 53 56 63 63 66 60 66 63 60 52 53 51 47 47 45 41 38 37
6 3 10 18 27 32 34 33 35 41 43 46 46 53 47 56 61 60 64 60 65 64 60 57 55 50 49 49 43 41 39 38
14 11 24 28 27 29 35 37 37 40 41 45 46 45 52 58 58 57 52 59 54 55 49 49 55 51 50 47 43 42 40 38
17 9 19 19 22 30 29 25 26 32 39 48 41 53 62 54 59 53 49 50 48 54 49 43 43 48 49 48 46 44 40 39
16 6 11 27 14 18 18 17 21 21 40 46 29 28 35 44 62 50 47 49 50 40 39 42 41 39 38 41 45 48 41 39
18 15 2 16 29 22 23 19 24 18 31 31 38 37 25 27 31 30 37 32 26 27 39 35 29 32 31 34 36 46 39 39
12 16 11 9 24 27 29 27 25 26 22 16 22 25 25 25 26 26 29 28 30 28 27 27 29 30 26 34 28 31 34 36
14 15 14 6 8 18 17 13 13 12 14 16 18 18 17 18 22 26 26 27 28 29 31 32 31 31 30 33 37 39 34 36
Wind_Direction
268 272 270 255 244 244 244 244 245 247 251 244 249 243 244 250 242 234 235 232 234 239 249 253 256 263 255 257 258 261 267 269
275 274 272 265 250 241 240 243 241 238 244 245 250 252 254 244 246 238 237 237 234 234 243 251 254 257 260 253 254 255 260 264
284 277 268 261 248 237 235 238 240 239 236 243 243 249 237 234 239 239 238 240 239 235 240 247 249 253 259 256 253 251 253 258
293 286 276 263 243 230 229 231 234 238 239 238 244 227 229 234 224 234 238 241 242 242 240 246 248 251 256 260 255 252 251 256
298 292 291 258 239 221 221 226 228 231 232 236 231 226 243 245 224 227 239 242 245 249 242 241 248 248 253 262 264 257 255 254
303 300 306 280 231 214 212 219 224 225 229 234 238 239 240 232 228 222 228 235 239 245 250 241 246 248 250 257 263 263 258 258
329 309 311 283 220 206 204 212 218 223 223 227 229 233 234 231 233 223 227 230 235 241 249 246 245 248 248 253 257 260 260 258
325 321 320 282 200 203 198 207 214 220 221 227 228 233 233 232 227 225 229 231 235 240 244 247 249 249 249 250 255 258 260 259
335 330 324 326 176 189 195 203 211 217 219 225 229 230 233 235 232 233 221 229 234 239 243 244 245 246 250 250 251 253 255 258
341 343 29 135 157 182 192 203 212 218 218 221 227 232 238 232 234 241 229 229 233 236 242 242 243 245 248 247 249 250 251 255
358 348 32 142 163 180 194 204 216 219 224 229 231 234 234 231 232 239 245 230 233 238 239 240 240 244 246 246 249 250 251 252
27 335 326 170 176 188 198 208 213 222 229 233 233 233 230 225 228 234 239 237 235 239 240 233 236 240 244 247 248 248 251 253
292 199 270 200 199 210 208 218 226 225 233 238 228 226 226 224 228 232 236 241 228 238 236 226 232 235 241 244 244 247 250 253
318 295 236 209 213 224 225 221 230 235 232 229 219 217 223 229 231 235 234 228 237 244 240 235 233 235 238 242 242 243 246 251
350 265 158 218 216 213 215 211 208 216 224 219 222 218 225 225 230 228 235 237 236 232 225 227 229 234 239 241 242 245 245 248
355 347 186 208 206 202 203 208 211 212 211 210 193 213 217 212 220 218 222 230 234 225 227 228 230 235 246 241 243 242 247 249
20 359 48 155 189 196 191 203 210 193 189 189 203 204 199 205 209 205 215 216 216 220 220 225 229 237 245 249 250 235 241 246
27 10 348 213 179 179 177 196 208 226 216 220 234 244 245 244 247 247 251 247 249 251 248 247 244 248 253 255 257 236 247 248
27 22 13 351 235 182 168 177 189 203 218 227 233 244 248 245 246 250 253 253 250 246 247 249 252 251 254 253 256 253 248 254